Lapse_Rate
8.4 8.1 8.1 8.0 8.1 7.8 7.2 6.9 6.5 6.8 6.4 6.6 6.7 6.5 6.5 6.5 6.5 6.4 6.5 6.5 6.5 6.5 6.5 6.5 6.5 6.5 6.5 5.7 6.4 6.5 6.5 6.5 6.5 6.5 6.5 6.5 6.5 6.5 6.5 6.5 6.5 6.5 6.5 6.5
8.1 7.9 7.9 7.9 7.8 7.5 6.2 6.8 6.9 6.3 6.5 6.5 6.5 6.5 6.5 6.5 6.5 6.5 6.5 6.5 6.5 6.5 6.5 6.5 6.5 6.5 6.3 5.5 6.5 6.5 6.5 6.5 6.5 6.5 6.5 6.5 6.5 6.5 6.5 6.5 6.5 6.5 6.5 6.5
7.9 7.8 7.6 7.1 7.5 7.4 6.3 6.6 6.5 7.0 6.7 6.6 6.5 6.5 6.5 6.5 6.0 6.5 6.1 6.5 6.4 6.5 6.5 6.5 6.5 6.5 6.5 5.6 6.2 6.8 6.3 6.5 6.5 6.5 6.5 6.5 6.5 6.5 6.5 6.5 6.5 6.5 6.5 6.5
7.0 7.0 7.4 7.3 7.2 6.9 6.0 6.2 6.5 6.5 6.5 6.5 6.5 6.5 6.5 6.5 6.5 6.3 5.6 6.5 6.5 6.5 6.5 6.5 6.5 6.5 6.5 6.4 6.2 6.3 6.5 6.5 6.5 6.5 6.5 6.5 6.5 6.5 6.5 6.5 6.5 6.5 6.5 6.5
6.0 6.2 6.6 7.4 6.9 6.6 5.8 6.5 6.4 5.2 6.6 6.2 6.5 6.5 6.5 6.5 6.5 6.5 6.5 6.5 6.5 6.5 6.5 6.5 6.5 6.5 6.5 6.5 6.5 6.5 6.5 6.5 6.5 6.5 6.5 6.5 6.5 6.5 6.5 6.5 6.5 6.5 6.5 6.5
5.7 5.7 5.7 6.4 6.7 6.2 5.4 4.8 4.4 5.4 6.4 6.5 6.5 6.5 6.5 6.5 6.5 6.3 6.0 6.4 6.5 6.5 6.5 6.1 5.5 4.5 4.9 6.1 6.5 6.5 6.5 6.5 6.5 6.5 6.5 6.5 6.5 6.5 6.5 6.5 6.5 6.5 6.5 6.5
5.5 5.0 4.3 5.7 5.9 3.9 2.7 2.5 2.9 4.0 6.5 6.5 6.5 6.5 6.5 6.5 6.5 6.5 6.1 5.1 6.5 6.2 4.9 4.5 5.4 4.3 4.7 5.4 6.3 6.0 6.5 6.5 6.5 6.5 6.5 6.5 6.5 6.5 6.5 6.5 6.5 6.5 6.5 6.5
5.3 5.3 5.0 6.3 5.3 4.4 1.4 1.4 2.5 2.9 6.5 6.1 6.5 6.5 6.5 6.2 5.1 6.2 6.2 5.4 4.5 3.8 4.8 6.5 6.5 6.5 6.5 6.5 6.5 6.5 6.5 6.5 6.5 6.5 6.5 6.5 6.5 6.5 6.5 6.5 6.5 6.5 6.5 6.5
5.0 5.3 5.8 6.3 5.7 5.1 1.5 -0.1 -0.7 1.8 5.0 6.5 5.5 6.4 6.2 6.5 6.5 6.5 6.1 5.9 4.2 4.2 6.6 6.5 6.5 6.5 6.5 6.5 6.5 6.5 6.5 6.5 6.5 6.5 6.5 6.5 6.5 6.5 6.1 6.5 6.5 6.5 6.2 6.4
5.9 5.8 6.3 6.6 6.2 5.4 1.6 -0.5 -1.3 0.5 3.5 4.6 4.3 6.2 6.1 5.1 5.7 6.5 5.9 5.3 5.5 4.3 6.5 6.5 6.5 6.5 6.5 6.5 6.5 6.5 6.5 6.5 6.5 6.5 6.5 6.5 6.5 6.2 5.5 6.5 6.5 6.2 5.8 5.6
6.1 6.2 6.3 6.3 5.6 4.3 0.8 0.1 -1.3 -0.0 2.3 4.3 4.1 3.7 4.1 4.6 4.5 6.5 5.2 5.7 5.2 6.1 6.5 6.5 6.5 6.5 6.5 6.5 6.5 6.5 6.5 6.5 6.5 6.5 6.5 6.5 5.6 6.0 6.5 6.2 5.4 5.5 5.3 5.0
6.4 6.1 6.1 6.4 6.5 5.2 2.6 0.5 0.3 -0.2 -0.0 3.8 3.9 4.2 3.7 3.1 3.4 2.7 2.9 5.2 5.4 4.9 6.5 6.5 6.5 6.5 6.5 6.5 6.5 6.5 6.5 6.5 6.5 6.5 6.5 5.9 4.8 5.6 4.4 3.7 4.1 4.8 4.9 4.0
6.7 7.1 6.6 6.2 6.1 5.4 3.4 0.3 -0.0 0.3 1.9 3.6 3.7 4.3 4.2 2.7 1.5 1.0 4.0 2.7 3.1 3.2 2.0 5.0 6.4 6.5 6.5 6.5 6.5 6.5 6.5 5.9 6.5 6.5 6.5 6.3 5.1 4.5 4.6 4.4 4.2 4.0 3.9 4.1
6.4 6.9 7.2 6.7 6.1 5.4 4.4 1.7 -0.3 0.5 1.2 4.4 4.9 3.4 4.0 2.4 1.3 1.6 1.7 1.9 0.9 0.9 1.1 3.4 6.5 6.5 5.6 6.5 6.5 6.5 6.2 6.2 6.5 6.5 6.3 5.7 4.5 4.2 4.1 3.9 3.9 3.9 3.8 4.3
6.3 6.7 7.0 6.9 6.1 5.0 3.0 0.3 -0.2 -0.0 2.3 4.7 4.7 3.5 4.3 2.3 1.8 1.7 1.9 2.3 2.1 1.9 2.5 5.6 6.5 5.5 6.1 6.0 6.4 6.5 5.1 6.5 6.5 6.5 5.5 5.4 5.3 4.0 3.8 3.9 4.8 4.4 4.4 4.4
6.1 6.3 6.7 6.1 5.8 5.4 3.8 3.0 1.1 0.9 0.4 1.2 6.4 3.9 4.2 3.4 2.9 1.9 1.6 1.2 0.2 0.9 3.3 5.2 4.3 4.2 5.0 6.5 6.5 5.6 3.4 3.0 3.8 5.1 3.8 3.9 3.8 3.7 4.2 4.7 4.6 4.3 4.2 3.8
5.9 6.4 6.5 6.4 5.9 3.1 3.6 3.9 3.0 2.1 1.0 1.2 5.1 4.7 4.9 3.7 3.3 1.7 1.9 0.8 0.8 1.6 3.2 5.2 4.8 4.8 3.2 6.5 6.5 5.5 3.3 3.9 3.5 3.6 3.8 5.1 4.4 4.1 3.6 4.3 4.0 3.7 3.3 2.8
5.9 6.4 6.7 6.3 5.7 4.3 3.2 1.6 3.6 2.4 0.8 0.7 6.5 6.5 4.2 4.7 4.4 4.8 1.5 2.9 2.7 2.8 3.9 4.4 5.7 5.1 5.4 6.5 5.7 4.6 3.9 3.9 4.0 3.7 3.9 3.7 2.8 3.2 3.8 3.1 2.4 3.0 2.4 2.4
6.7 6.5 6.4 4.4 3.4 3.8 2.8 3.7 3.4 1.6 1.8 1.4 4.6 6.5 6.5 4.4 4.4 3.8 4.2 3.3 6.4 4.3 6.4 6.1 5.8 6.5 6.5 6.4 4.8 3.8 3.1 4.0 4.2 3.5 3.4 3.2 4.0 4.3 3.9 3.4 3.4 3.1 2.4 2.5
6.2 5.1 4.4 3.8 2.4 3.4 3.9 3.6 3.6 0.9 0.2 1.2 4.9 4.0 6.5 4.4 4.7 5.3 4.7 5.2 6.5 6.5 6.4 5.2 6.5 6.5 4.7 3.7 3.0 2.8 2.6 3.6 2.8 1.5 3.5 3.6 1.0 2.3 3.4 3.0 2.5 2.1 2.4 2.7
5.5 4.4 3.4 2.4 3.3 3.0 2.6 2.1 3.9 3.6 5.7 3.6 3.2 3.4 6.2 4.8 6.3 6.5 5.4 6.5 6.5 6.5 6.5 6.5 6.5 6.5 6.0 3.1 2.5 2.0 2.2 2.6 3.3 4.0 4.2 4.0 2.9 0.5 2.0 2.2 2.6 2.7 2.5 2.1
4.8 3.5 2.6 2.3 2.6 1.9 6.1 6.5 5.9 6.4 6.5 5.3 6.0 5.2 4.7 4.3 3.9 5.3 5.8 6.5 6.5 6.5 5.4 6.5 6.5 6.5 3.2 2.5 3.0 2.2 1.6 2.2 3.3 3.7 3.7 3.1 2.5 1.7 1.7 1.3 1.1 1.2 1.4 1.2
4.5 3.7 3.8 3.6 3.0 6.5 6.5 6.5 6.5 6.5 6.0 5.3 5.8 6.3 4.0 4.0 4.4 5.4 6.4 6.5 6.5 5.3 6.5 6.5 6.5 3.7 3.6 2.1 0.7 2.3 1.8 2.9 3.6 3.6 3.3 2.7 1.9 2.2 2.2 1.9 2.1 2.0 1.8 2.0
4.9 5.1 6.5 6.5 6.5 6.5 6.5 6.5 6.4 4.5 4.2 4.7 3.3 6.2 5.2 5.0 5.9 6.4 6.5 6.5 6.5 6.5 6.5 6.5 6.5 2.1 2.6 1.3 1.9 2.6 2.8 3.3 3.3 0.4 -0.7 0.4 1.5 1.6 2.1 2.7 2.3 2.2 2.4 3.2
5.3 5.1 6.5 6.5 4.1 3.3 3.2 2.0 3.7 3.8 4.6 3.9 4.0 4.9 4.8 6.4 6.5 6.5 6.5 6.5 6.5 6.5 6.5 6.5 -0.5 -1.1 0.4 1.0 1.6 2.1 2.8 -0.7 -1.5 -1.9 -2.1 -2.4 -1.2 0.2 1.2 1.9 1.8 2.0 2.7 3.2
3.7 2.5 4.5 3.6 4.7 4.8 5.4 3.5 4.3 3.4 5.2 1.8 3.0 6.5 6.5 6.5 6.5 6.5 6.5 6.5 6.5 6.5 6.4 0.3 -0.0 -0.8 0.8 1.3 2.0 1.9 1.6 1.3 0.6 -1.0 -0.9 -0.6 -0.6 0.5 0.6 -0.1 0.9 2.2 3.0 3.7
5.3 4.1 2.3 3.5 4.2 4.7 4.3 3.8 3.8 3.4 3.7 6.5 6.1 6.5 6.5 6.4 6.5 6.5 6.5 6.5 6.5 1.5 -0.2 -1.1 0.5 0.7 1.0 0.9 1.6 1.6 1.5 0.7 0.2 -1.2 -1.0 -1.0 -0.2 -2.2 -1.2 0.8 2.6 2.4 3.9 4.2
Wind_Speed
33 32 30 28 23 25 6 2 3 6 7 3 1 2 2 3 1 2 3 5 4 3 2 3 2 2 1 6 2 2 2 4 3 1 2 2 2 1 0 3 3 4 3 1
31 29 27 23 21 19 2 2 3 3 2 2 2 2 3 2 2 0 2 3 3 2 3 3 3 3 3 6 4 1 2 4 2 6 5 0 3 3 3 4 3 2 3 1
31 29 24 20 15 16 2 2 3 3 2 2 2 2 3 3 4 4 6 4 3 3 4 5 2 3 2 5 4 6 3 3 3 4 3 2 3 4 4 4 3 2 1 4
34 28 11 9 10 11 1 3 3 2 3 1 3 2 3 4 3 3 6 4 2 4 3 2 2 1 4 2 7 4 4 4 3 4 4 2 2 2 3 4 2 3 2 4
35 24 9 7 3 2 3 2 3 2 2 3 2 4 2 4 3 5 3 6 2 3 5 2 2 2 3 1 6 4 4 1 2 5 6 5 4 4 4 3 2 3 5 1
17 8 15 9 11 7 3 1 2 3 3 2 2 1 4 3 5 4 4 4 5 7 2 1 3 5 5 3 2 2 3 3 3 2 4 3 4 2 2 2 2 3 3 1
21 21 23 23 19 4 3 1 3 3 1 2 1 5 3 4 4 5 3 4 4 0 2 4 3 7 8 8 7 2 3 3 2 2 4 3 4 1 2 3 3 1 2 2
28 23 26 25 10 9 4 2 3 3 4 2 3 3 3 4 6 5 4 5 2 1 4 4 4 4 4 5 5 7 4 3 3 3 1 3 2 3 2 2 1 1 5 4
29 27 24 19 14 11 5 3 1 4 5 2 3 3 3 3 2 4 4 3 1 4 3 3 2 1 1 2 5 5 4 5 4 2 3 1 3 2 2 1 3 1 5 4
20 21 17 14 14 15 6 3 3 4 4 2 2 1 2 1 3 3 2 3 3 3 2 3 2 1 1 0 2 1 3 3 2 2 1 5 3 4 3 1 2 2 3 3
11 11 11 13 11 5 4 0 4 3 3 2 2 3 3 2 1 3 3 3 3 3 3 2 2 2 2 1 1 2 4 3 2 1 1 5 1 2 2 3 0 2 2 2
6 6 10 9 8 6 6 3 3 3 5 3 0 1 1 1 2 2 2 3 1 3 4 1 2 1 1 3 2 0 2 4 3 6 4 1 1 1 1 3 4 3 2 1
6 6 4 3 9 15 9 3 1 3 3 2 3 3 3 2 1 2 3 2 2 2 1 3 2 2 3 3 4 1 2 2 2 1 2 4 3 1 2 1 2 3 1 1
5 6 2 1 7 9 7 3 1 3 3 3 2 2 2 7 4 3 2 3 3 4 2 2 2 2 2 2 2 3 3 4 3 4 4 2 4 4 4 3 3 2 0 0
4 5 3 4 6 9 12 3 2 1 3 3 2 3 2 4 5 6 4 4 3 2 2 2 1 1 2 0 1 3 5 5 4 4 1 2 1 2 5 5 2 2 1 2
2 2 3 5 5 3 2 3 3 3 2 4 2 2 4 4 5 7 7 3 3 2 3 2 1 1 2 2 3 3 3 2 2 3 2 3 3 4 3 4 2 1 2 3
6 6 2 1 3 4 2 2 2 1 2 3 2 2 2 2 2 2 3 3 2 2 2 1 2 1 2 2 4 3 5 5 4 3 5 2 3 3 4 2 1 2 2 4
12 7 4 7 11 7 2 3 2 3 4 3 3 2 2 1 1 1 2 2 2 4 2 1 1 1 1 3 5 3 4 5 4 4 2 3 4 4 3 1 1 3 5 5
12 10 5 3 3 1 2 1 4 5 3 3 2 4 3 1 1 1 1 1 2 1 1 1 2 1 4 6 5 6 6 5 5 5 4 4 3 3 2 2 3 3 6 5
9 5 3 3 2 6 3 4 2 4 3 3 2 1 2 2 0 1 2 2 1 1 1 1 2 4 4 3 4 4 7 6 7 4 2 2 2 4 4 5 4 6 5 6
2 2 1 2 6 3 3 1 2 1 2 2 2 3 3 2 3 2 1 2 0 2 3 2 2 3 3 3 4 4 5 6 5 3 2 2 4 5 5 6 6 5 6 5
3 4 3 2 3 3 2 3 2 3 5 2 4 4 3 2 1 3 1 3 2 3 2 2 3 4 3 5 5 5 5 6 4 2 3 5 6 6 6 6 6 6 6 6
3 3 3 2 1 1 5 6 4 2 5 4 4 3 3 2 1 3 2 3 3 2 1 3 4 3 2 6 4 5 4 3 1 2 3 5 7 5 5 7 6 7 7 8
2 2 2 5 3 5 5 3 2 1 3 7 3 3 2 2 3 2 4 1 3 2 2 6 3 5 4 6 4 5 4 2 3 4 3 5 6 7 7 6 7 6 8 10
3 3 5 6 3 2 2 2 1 1 4 5 4 3 2 1 3 2 3 3 4 5 5 3 3 3 5 6 4 4 2 1 2 2 3 5 5 5 8 8 6 6 8 9
2 1 1 3 1 2 1 1 2 2 5 1 2 3 2 2 4 3 7 6 6 4 3 2 3 4 5 5 5 4 2 2 3 2 2 3 5 5 7 7 7 7 7 8
5 4 3 2 1 3 2 3 3 3 2 3 3 5 6 3 2 3 4 5 3 3 2 2 4 6 6 6 5 5 4 4 4 3 3 3 4 4 3 5 7 6 9 9
Wind_Direction
325 323 324 328 340 339 352 17 88 128 150 105 153 172 195 229 143 282 70 89 102 124 102 91 91 44 290 336 281 26 328 104 62 279 289 251 255 240 70 94 318 41 75 22
320 320 325 329 336 349 12 45 76 101 11 104 119 345 291 218 117 161 96 85 90 129 109 99 65 33 305 345 39 45 360 20 66 350 349 4 42 18 62 64 51 24 100 217
319 313 310 309 330 346 29 117 96 105 348 27 95 349 283 101 23 53 66 98 76 96 59 30 88 16 325 344 14 38 103 83 138 161 188 308 18 33 43 80 72 181 202 144
306 299 326 317 328 338 82 31 59 59 148 153 64 335 305 98 57 57 35 41 114 127 94 68 81 330 354 348 5 36 72 90 81 67 19 28 76 60 44 70 137 79 217 149
311 306 247 247 213 181 74 97 117 55 100 97 93 1 323 99 113 40 19 108 26 69 113 124 175 120 40 32 347 48 3 93 75 20 7 13 101 62 74 41 107 92 121 16
357 85 138 149 146 157 88 24 24 83 360 52 111 16 305 78 116 38 52 138 97 57 46 128 92 94 81 77 50 50 65 112 52 314 335 332 39 355 10 81 67 148 162 343
58 106 121 127 149 111 105 95 111 92 63 86 107 330 6 69 34 124 10 22 88 218 95 112 78 61 66 48 26 29 109 87 74 219 352 43 234 238 218 197 177 178 101 48
70 86 98 110 82 76 87 70 90 98 104 38 9 358 106 65 46 54 65 8 309 350 38 62 41 358 23 2 25 8 56 108 74 99 171 278 29 2 38 54 25 85 126 121
61 85 91 87 78 60 80 58 63 97 121 29 330 330 30 93 80 22 26 356 307 60 71 65 87 157 298 344 351 2 34 78 100 56 87 235 216 274 354 252 325 121 137 148
63 74 67 65 79 84 93 50 30 86 102 10 337 39 75 78 75 92 331 349 28 45 54 67 105 251 251 168 136 298 7 14 111 128 241 289 262 297 317 98 245 136 139 146
60 60 60 59 73 74 72 133 11 111 98 23 350 355 15 355 34 130 212 61 353 42 68 116 189 131 227 73 236 197 178 137 196 77 86 298 88 325 169 202 216 149 120 120
67 50 19 40 49 75 124 68 350 52 79 138 131 104 79 359 274 130 26 153 150 173 94 97 125 143 79 159 251 40 238 182 189 183 217 220 214 233 163 181 166 184 165 164
34 47 339 334 69 61 87 122 332 60 92 30 47 343 321 332 314 267 122 274 167 101 159 156 151 133 144 177 244 218 252 149 211 5 212 223 199 189 195 154 139 112 115 152
7 332 3 218 47 71 88 85 293 82 106 110 283 326 343 318 334 200 207 146 74 100 70 100 118 150 166 209 209 197 201 134 184 268 267 311 239 218 173 145 109 129 85 230
9 22 53 42 56 79 83 84 30 101 123 147 196 318 326 340 17 51 54 90 90 72 57 61 169 115 129 326 46 246 188 185 171 223 215 136 239 205 158 156 166 182 211 276
296 354 37 79 48 347 12 31 7 14 87 100 125 304 339 340 16 44 44 41 70 83 110 146 187 237 123 150 230 242 186 182 173 184 165 139 113 133 128 147 167 192 275 285
143 142 120 22 50 66 80 209 225 108 75 85 56 344 322 312 10 29 26 28 64 92 118 109 150 192 104 188 229 221 185 159 158 155 133 131 179 192 172 174 169 294 270 252
137 122 92 86 89 97 13 328 345 95 93 69 113 279 2 349 59 60 356 58 41 17 128 81 150 50 77 257 232 182 162 142 136 137 109 150 126 133 151 110 290 312 299 286
136 125 60 352 29 34 254 290 34 47 124 136 108 151 216 19 61 30 34 47 82 305 92 178 118 193 228 231 186 184 183 177 171 151 145 157 193 209 251 258 273 268 278 282
96 61 52 306 302 312 358 6 14 9 341 44 132 128 163 104 54 25 78 1 118 158 255 100 206 256 260 227 201 187 173 152 134 114 232 203 276 230 245 239 245 243 265 282
352 92 206 250 325 20 30 273 121 310 315 152 170 172 138 211 123 151 185 169 90 85 250 154 279 272 246 180 173 169 154 164 178 172 155 199 210 231 258 275 257 262 264 256
178 148 94 35 39 13 94 242 317 185 228 166 146 177 142 159 147 99 235 129 65 220 143 83 267 251 235 159 155 156 153 154 167 184 252 268 262 251 249 256 264 262 259 275
78 53 57 70 276 350 184 212 253 245 168 175 162 132 132 122 94 69 95 102 194 101 108 232 232 249 194 172 155 158 175 172 185 275 280 286 282 281 242 266 257 261 271 274
90 111 246 186 244 242 208 222 202 214 123 140 116 111 140 134 86 144 96 179 90 145 239 233 241 214 189 169 151 135 170 189 294 296 307 304 304 298 295 262 265 274 274 278
151 144 220 213 254 235 269 279 315 355 141 129 105 69 96 104 108 166 124 154 244 214 226 225 224 195 149 149 146 143 126 331 314 306 316 310 305 300 294 294 288 286 287 289
116 298 337 225 30 298 246 208 267 226 154 88 68 118 101 194 144 136 209 155 221 232 210 211 139 127 129 131 122 114 95 35 355 339 309 307 320 306 297 307 301 300 296 295
197 241 231 185 188 213 243 177 207 149 148 202 142 149 199 100 86 237 194 208 221 186 169 172 143 137 131 120 106 88 69 50 11 339 340 294 299 295 311 332 326 307 307 295